Regional Weather Roundup
Issued by NWS

Home | Current Version | Previous Version | Graphics & Text | Print | Product List | Glossary On
Versions: 1 2 3 4 5 6 7 8 9 10 11 12 13 14 15 16 17 18 19 20 21 22 23 24 25 26 27 28 29 30 31 32 33 34 35 36 37 38 39 40 41 42 43 44 45 46 47 48 49 50
000
ASUS45 KABQ 300801
RWRNM
NEW MEXICO REGIONAL WEATHER ROUNDUP
NATIONAL WEATHER SERVICE ALBUQUERQUE NM
200 AM MDT SUN APR 30 2017

NOTE: "FAIR" MEANS FEW OR NO CLOUDS BELOW 12,000 FEET AGL WITH NO
       SIGNIFICANT WEATHER OR OBSTRUCTIONS TO VISION.

      THIS PRODUCT IS RELEASED AS TWO VERSIONS.  ONE VERSION NEAR
      THE TOP OF THE HOUR CONTAINING PRELIMINARY DATA FROM ALBUQUERQUE
      AND OTHER STATIONS.  A FINAL VERSION WITH ADDITIONAL DATA IS
      ISSUED ABOUT 10 MINUTES AFTER THE HOUR.

NMZ501-503-504-510>518-300900-
NORTHWEST PLATEAU/NORTHCENTRAL MOUNTAINS

CITY           SKY/WX    TMP DP  RH WIND       PRES   REMARKS
FARMINGTON     FAIR      40  20  44 NW14      30.04F WCI  32
LOS ALAMOS     CLOUDY    30  25  80 CALM      30.04F
SANTA FE       CLOUDY    32  28  85 W6        30.03S WCI  26
TAOS             N/A     27  16  63 NW8       30.03S WCI  18
ANGEL FIRE     FAIR      21  18  89 W10       29.98F WCI  10

$$
NMZ402-403-502-505>509-300900-
WESTCENTRAL MOUNTAINS/SOUTHWEST MOUNTAINS

CITY           SKY/WX    TMP DP  RH WIND       PRES   REMARKS
GALLUP         FAIR      24  22  91 W5        30.12S WCI  18
GRANTS         FAIR      35  24  66 NW16G25   30.09S WCI  24
SILVER CITY    FAIR      35  25  65 NW9       30.12R WCI  28

$$
NMZ407-409-411-412-300900-
SOUTHERN DESERTS

CITY           SKY/WX    TMP DP  RH WIND       PRES   REMARKS
DEMING         FAIR      39  23  52 W6        30.10S WCI  35
LAS CRUCES     FAIR      36  31  83 N7        30.10S WCI  31
HOLLOMAN AFB   FAIR      37  33  86 N6        30.10F WCI  33
ALAMOGORDO     FAIR      37  32  81 N5        30.07F WCI  34
T OR C         FAIR      37  31  78 CALM      30.07R

$$
NMZ519>523-300900-
CENTRAL VALLEYS/CENTRAL HIGHLANDS

CITY           SKY/WX    TMP DP  RH WIND       PRES   REMARKS
ALBUQUERQUE    CLOUDY    36  35  96 SW5       30.08S WCI  32
MORIARTY ARPT  CLOUDY    34  31  88 W6        30.05F WCI  29
CLINES CORNERS MOCLDY    27  25  92 W14       30.01F WCI  16
BELEN          CLOUDY    37  34  87 S3        30.08S
SOCORRO        CLOUDY    38  34  87 SE3       30.08S

$$
NMZ524>526-539-540-300900-
SOUTHCENTRAL MOUNTAINS

CITY           SKY/WX    TMP DP  RH WIND       PRES   REMARKS
RUIDOSO        NOT AVBL

$$
NMZ527>531-300900-
NORTHEAST HIGHLANDS/NORTHEAST PLAINS

CITY           SKY/WX    TMP DP  RH WIND       PRES   REMARKS
LAS VEGAS      CLOUDY    23  22  96 CALM      29.99F
RATON          MOCLDY    28  19  69 N17G23    29.95F WCI  16
CLAYTON        SNOW      29  28  96 NW24G36   29.86F VSB 1/2 WCI  15

$$
NMZ532>537-300900-
EASTCENTRAL PLAINS

CITY           SKY/WX    TMP DP  RH WIND       PRES   REMARKS
SANTA ROSA     LGT SNOW  32  32 100 NW6       30.03F WCI  26
TUCUMCARI      LGT SNOW  34  32  92 W20       29.98F FOG     WCI  23
CANNON AFB     FAIR      33  33 100 NW17      29.98S WCI  22
CLOVIS AIRPORT MOCLDY    34  28  80 NW21G26   29.96F WCI  22

$$
NMZ028-029-538-300900-
SOUTHEAST PLAINS

CITY           SKY/WX    TMP DP  RH WIND       PRES   REMARKS
ROSWELL        CLOUDY    38  31  76 N9          N/A  WCI  31
ARTESIA        CLOUDY    37  32  81 NW14      30.10F WCI  29
CARLSBAD       FAIR      39  31  72 NW17      30.08S WCI  30
HOBBS          FAIR      36  30  80 NW17      30.02F WCI  25


$$



USA.gov is the U.S. government's official web portal to all federal, state and local government web resources and services.